World > North America > United States > New York

Hourly Vestal, NY Regional Weather

Feedback E-mail the Weather

Latest News

Vestal, NY Weather Maps

°F °C°F °C
Vestal Weather Map
UTC Time: 5/26/2022, 17:06
Your Time:

Vestal, NY Regional Weather

Expires:202205261700;;612314
ASUS41 KPHI 261614
RWRPHI

REGIONAL WEATHER ROUNDUP
NATIONAL WEATHER SERVICE MOUNT HOLLY NJ
1200 PM EDT THU MAY 26 2022

NOTE:  "FAIR" INDICATES FEW OR NO CLOUDS BELOW 12,000 FEET WITH NO
SIGNIFICANT WEATHER AND/OR OBSTRUCTIONS TO VISIBILITY.

 * = STATION DOES NOT REPORT PRECIPITATION (E.G. RAIN, SNOW, ETC.) 
        OR FOG.


PAZ001-021-NYZ056-072-MDZ011-DCZ001-261700-
OTHER NEARBY LOCATIONS
  
CITY           SKY/WX    TMP DP  RH WIND       PRES   REMARKS
HARRISBURG     CLOUDY    66  56  70 SE8       30.23F                  
STATE COLLEGE  MOSUNNY   70  55  60 S8        30.18F                  
WILLIAMSPORT   MOSUNNY   66  50  56 NE9G28    30.19F                  
BINGHAMTON     MOSUNNY   66  51  58 S14G24    30.16F                  
NEW YORK CITY  SUNNY     67  50  54 VRB6      30.32F                  
BALTIMORE      CLOUDY    66  59  78 E8        30.25S                  
WASHINGTON DC  CLOUDY    69  59  70 S3        30.24F                  

$$
  

SKY/WX - Weather  TMP - Temperature  DP - Dew Point  RH - Humidity
WIND - Wind Direction/Speed PRES - Barometric Pressure VSB - Visibility
WCI - Wind Chill Index E13G22 Wind - East Wind 13 mph/Gusts of 22 mph

Trending Headlines

Vestal Radar Loop



Vestal Quick Facts


National Two Day Weather Forecast


E-mail the Vestal Weather Forecast

Voice your opinion or tell us about page issues...